User: anonymous   Login
Location: Al Mulaqqa?ah
(24.1833°N, 32.8833°E)
Time: 09:37:14
(UTC+00:00)
Language:

Fermi - Orbit

View from above orbital plane
View from above orbital plane
View from above satellite
View from above satellite

Ground track
Ground track

The orbit data is extracted from the following two-line orbital elements,

1 33053U 08029A   21340.57837593  .00000759  00000-0  26444-4 0  9995
2 33053  25.5838  41.7793 0012570 105.2921 254.9005 15.11684798744474
Epoch (UTC): 06 December 2021 13:52:51
Eccentricity: 0.0012570
inclination: 25.5838°
perigee height: 522 km
apogee height: 540 km
right ascension of ascending node: 41.7793°
argument of perigee: 105.2921°
revolutions per day: 15.11684798
mean anomaly at epoch: 254.9005°
orbit number at epoch: 74447

The dashed part of the orbit path shows where the satellite is in the earth's shadow,  

DLR